This demonstration page uses our WeatherBlox Daily Observations layout. Learn more.

Left ArrowRight Arrow

Hourly Observations for December 31, 2019

Temp ( °F °C ) Dew Point ( °F °C ) Humidity (%) Winds ( mph kmh ) Pressure ( in mb ) Visibility ( mi km ) Precip ( " mm )
12:56 am 00:56 Cloudy 32 0 21 -6 64 64 WNW 22 35 29.93 1013 10 16 0.00 0.00
1:56 am 01:56 Cloudy 32 0 23 -5 69 69 WNW 15 24 29.94 1014 10 16 0.00 0.00
2:56 am 02:56 Cloudy 32 0 23 -5 69 69 WNW 15 24 29.96 1015 10 16 0.00 0.00
3:56 am 03:56 Cloudy 32 0 23 -5 69 69 WNW 13 20 29.96 1015 10 16 0.00 0.00
4:56 am 04:56 Cloudy 32 0 23 -5 69 69 WNW 10 17 29.97 1015 10 16 0.00 0.00
5:56 am 05:56 Cloudy 32 0 23 -5 69 69 WNW 17 28 29.98 1015 10 16 0.00 0.00
8:56 am 08:56 Cloudy 32 0 21 -6 64 64 WNW 12 19 30.02 1017 10 16 0.00 0.00
9:56 am 09:56 Partly Cloudy 34 1 19 -7 56 56 WNW 13 20 30.05 1018 10 16 0.00 0.00
10:56 am 10:56 Mostly Cloudy 36 2 21 -6 56 56 WNW 16 26 30.04 1017 10 16 0.00 0.00
11:56 am 11:56 Mostly Cloudy 36 2 19 -7 52 52 WNW 10 17 30.03 1017 10 16 0.00 0.00
12:56 pm 12:56 Mostly Cloudy 37 3 19 -7 48 48 W 13 20 30.01 1016 10 16 0.00 0.00
1:56 pm 13:56 Mostly Cloudy 39 4 19 -7 45 45 W 8 13 30.00 1016 10 16 0.00 0.00
2:56 pm 14:56 Sunny 39 4 19 -7 45 45 W 10 17 30.00 1016 10 16 0.00 0.00
3:56 pm 15:56 Sunny 37 3 19 -7 48 48 W 8 13 29.99 1016 10 16 0.00 0.00
4:56 pm 16:56 Sunny 36 2 16 -9 44 44 W 6 9 29.98 1015 10 16 0.00 0.00
5:56 pm 17:56 Clear 32 0 19 -7 60 60 WSW 6 9 29.98 1015 10 16 0.00 0.00
6:56 pm 18:56 Clear 30 -1 21 -6 69 69 Calm 29.97 1015 10 16 0.00 0.00
7:56 pm 19:56 Clear 30 -1 21 -6 69 69 Calm 29.96 1015 10 16 0.00 0.00
8:56 pm 20:56 Clear 28 -2 21 -6 74 74 Calm 29.95 1014 10 16 0.00 0.00
9:56 pm 21:56 Clear 28 -2 23 -5 80 80 Calm 29.93 1014 10 16 0.00 0.00
10:56 pm 22:56 Clear 27 -3 23 -5 86 86 Calm 29.92 1013 10 16 0.00 0.00
11:56 pm 23:56 Clear 27 -3 23 -5 86 86 Calm 29.91 1013 10 16 0.00 0.00

Powered by AerisWeather